• Em Portugal
  • Lista de países
  • Para 7 dias
  • Temperatura da água
  • Mapas de satélite
  • Mapa do tempo
  • Widgets de tempo
  • user-avatar
    Iniciar Sessão

    Previsão horária em Sur

    Hoje, 22 Outubro, Segunda-feira

    Tempo Temperatura Precipitação Vento Pressão Humidade
    00:00 +24°C° 0 mm 1 m/s 761 mmHg 79%
    01:00 +24°C° 0 mm 1 m/s 761 mmHg 77%
    02:00 +24°C° 0 mm 1 m/s 761 mmHg 76%
    03:00 +24°C° 0 mm 1 m/s 761 mmHg 74%
    04:00 +23°C° 0 mm 1 m/s 761 mmHg 72%
    05:00 +23°C° 0 mm 1 m/s 761 mmHg 71%
    06:00 +25°C° 0 mm 2 m/s 761 mmHg 63%
    07:00 +26°C° 0 mm 2 m/s 761 mmHg 56%
    08:00 +28°C° 0 mm 2 m/s 761 mmHg 49%
    09:00 +29°C° 0 mm 2 m/s 761 mmHg 42%
    10:00 +31°C° 0 mm 2 m/s 761 mmHg 35%
    11:00 +32°C° 0 mm 2 m/s 761 mmHg 28%
    12:00 +34°C° 0 mm 3 m/s 761 mmHg 27%
    13:00 +34°C° 0 mm 3 m/s 760 mmHg 26%
    14:00 +35°C° 0 mm 3 m/s 760 mmHg 25%
    15:00 +34°C° 0 mm 4 m/s 760 mmHg 28%
    16:00 +33°C° 0 mm 4 m/s 759 mmHg 30%
    17:00 +32°C° 0 mm 4 m/s 759 mmHg 33%
    18:00 +30°C° 0 mm 4 m/s 759 mmHg 32%
    19:00 +30°C° 0 mm 4 m/s 759 mmHg 32%
    20:00 +30°C° 0 mm 4 m/s 759 mmHg 31%
    21:00 +29°C° 0.1 mm 4 m/s 759 mmHg 33%
    22:00 +29°C° 0.1 mm 4 m/s 759 mmHg 36%
    23:00 +28°C° 0.1 mm 4 m/s 759 mmHg 38%

    Amanhã, 23 Outubro, Terça-feira

    Tempo Temperatura Precipitação Vento Pressão Humidade
    00:00 +28°C° 0.3 mm 4 m/s 759 mmHg 41%
    01:00 +28°C° 0.3 mm 5 m/s 759 mmHg 44%
    02:00 +28°C° 0.3 mm 5 m/s 759 mmHg 47%
    03:00 +27°C° 0.4 mm 5 m/s 758 mmHg 49%
    04:00 +27°C° 0.4 mm 5 m/s 758 mmHg 51%
    05:00 +26°C° 0.4 mm 5 m/s 758 mmHg 52%
    06:00 +27°C° 0.3 mm 5 m/s 758 mmHg 49%
    07:00 +28°C° 0.3 mm 5 m/s 759 mmHg 46%
    08:00 +29°C° 0.3 mm 5 m/s 759 mmHg 43%
    09:00 +32°C° 0 mm 5 m/s 759 mmHg 38%
    10:00 +33°C° 0 mm 4 m/s 759 mmHg 32%
    11:00 +35°C° 0 mm 4 m/s 759 mmHg 27%
    12:00 +35°C° 0 mm 4 m/s 758 mmHg 27%
    13:00 +35°C° 0 mm 4 m/s 758 mmHg 28%
    14:00 +35°C° 0 mm 4 m/s 757 mmHg 28%
    15:00 +34°C° 0 mm 3 m/s 757 mmHg 34%
    16:00 +31°C° 0 mm 3 m/s 757 mmHg 39%
    17:00 +30°C° 0 mm 2 m/s 757 mmHg 45%
    18:00 +29°C° 0 mm 2 m/s 757 mmHg 47%
    19:00 +29°C° 0 mm 2 m/s 758 mmHg 48%
    20:00 +28°C° 0 mm 2 m/s 758 mmHg 50%
    21:00 +28°C° 0 mm 2 m/s 758 mmHg 49%
    22:00 +28°C° 0 mm 3 m/s 758 mmHg 48%
    23:00 +27°C° 0 mm 3 m/s 758 mmHg 47%

    Depois de amanhã, 24 Outubro, Quarta-feira

    Tempo Temperatura Precipitação Vento Pressão Humidade
    00:00 +28°C° 0 mm 3 m/s 758 mmHg 45%
    01:00 +28°C° 0 mm 3 m/s 758 mmHg 43%
    02:00 +28°C° 0 mm 3 m/s 757 mmHg 41%
    03:00 +28°C° 0 mm 3 m/s 757 mmHg 41%
    04:00 +27°C° 0 mm 3 m/s 757 mmHg 42%
    05:00 +27°C° 0 mm 2 m/s 757 mmHg 43%
    06:00 +28°C° 0 mm 2 m/s 757 mmHg 40%
    07:00 +29°C° 0 mm 3 m/s 757 mmHg 38%
    08:00 +30°C° 0 mm 3 m/s 757 mmHg 35%
    09:00 +31°C° 0 mm 3 m/s 757 mmHg 33%
    10:00 +33°C° 0 mm 3 m/s 757 mmHg 30%
    11:00 +33°C° 0 mm 3 m/s 757 mmHg 28%
    12:00 +34°C° 0 mm 3 m/s 756 mmHg 28%
    13:00 +34°C° 0 mm 3 m/s 756 mmHg 28%
    14:00 +34°C° 0 mm 3 m/s 755 mmHg 28%
    15:00 +32°C° 0 mm 2 m/s 755 mmHg 32%
    16:00 +31°C° 0 mm 2 m/s 755 mmHg 36%
    17:00 +30°C° 0 mm 2 m/s 755 mmHg 40%
    18:00 +29°C° 0 mm 2 m/s 755 mmHg 44%
    19:00 +28°C° 0 mm 2 m/s 755 mmHg 48%
    20:00 +28°C° 0 mm 2 m/s 756 mmHg 52%
    21:00 +27°C° 0 mm 2 m/s 756 mmHg 54%
    22:00 +27°C° 0 mm 2 m/s 756 mmHg 56%
    23:00 +26°C° 0 mm 2 m/s 756 mmHg 58%

    25 Outubro, Quinta-feira

    Tempo Temperatura Precipitação Vento Pressão Humidade
    00:00 +26°C° 0.1 mm 3 m/s 755 mmHg 55%
    01:00 +26°C° 0.1 mm 3 m/s 755 mmHg 53%
    02:00 +26°C° 0.1 mm 4 m/s 754 mmHg 50%
    03:00 +25°C° 2 mm 4 m/s 754 mmHg 58%
    04:00 +25°C° 2 mm 4 m/s 755 mmHg 65%
    05:00 +23°C° 2 mm 5 m/s 755 mmHg 73%
    06:00 +25°C° 0.2 mm 5 m/s 755 mmHg 63%
    07:00 +27°C° 0.2 mm 5 m/s 755 mmHg 54%
    08:00 +28°C° 0.2 mm 5 m/s 755 mmHg 44%
    09:00 +29°C° 0.1 mm 6 m/s 754 mmHg 42%
    10:00 +30°C° 0.1 mm 7 m/s 754 mmHg 40%
    11:00 +32°C° 0.1 mm 9 m/s 754 mmHg 38%
    12:00 +31°C° 0.3 mm 9 m/s 754 mmHg 45%
    13:00 +29°C° 0.3 mm 9 m/s 754 mmHg 51%
    14:00 +28°C° 0.3 mm 9 m/s 754 mmHg 57%
    15:00 +27°C° 1 mm 9 m/s 754 mmHg 64%
    16:00 +24°C° 1 mm 8 m/s 755 mmHg 70%
    17:00 +23°C° 1 mm 8 m/s 755 mmHg 77%
    18:00 +23°C° 1.1 mm 7 m/s 755 mmHg 79%
    19:00 +23°C° 1.1 mm 7 m/s 755 mmHg 80%
    20:00 +23°C° 1.1 mm 7 m/s 756 mmHg 82%
    21:00 +22°C° 1.1 mm 7 m/s 756 mmHg 83%
    22:00 +22°C° 1.1 mm 7 m/s 756 mmHg 84%
    23:00 +22°C° 1.1 mm 7 m/s 756 mmHg 85%

    26 Outubro, Sexta-feira

    Tempo Temperatura Precipitação Vento Pressão Humidade
    00:00 +22°C° 0.4 mm 7 m/s 757 mmHg 84%
    01:00 +22°C° 0.4 mm 7 m/s 757 mmHg 82%
    02:00 +22°C° 0.4 mm 7 m/s 757 mmHg 81%
    03:00 +22°C° 0.1 mm 7 m/s 757 mmHg 81%
    04:00 +22°C° 0.1 mm 7 m/s 757 mmHg 80%
    05:00 +22°C° 0.1 mm 7 m/s 758 mmHg 80%
    06:00 +22°C° 0 mm 7 m/s 758 mmHg 76%
    07:00 +22°C° 0 mm 7 m/s 759 mmHg 72%
    08:00 +22°C° 0 mm 7 m/s 760 mmHg 69%
    09:00 +23°C° 0 mm 6 m/s 760 mmHg 64%
    10:00 +23°C° 0 mm 6 m/s 760 mmHg 60%
    11:00 +25°C° 0 mm 5 m/s 761 mmHg 55%
    12:00 +25°C° 0 mm 5 m/s 761 mmHg 56%
    13:00 +25°C° 0 mm 5 m/s 761 mmHg 56%
    14:00 +25°C° 0 mm 5 m/s 761 mmHg 56%
    15:00 +23°C° 0 mm 5 m/s 761 mmHg 59%
    16:00 +23°C° 0 mm 4 m/s 762 mmHg 61%
    17:00 +22°C° 0 mm 4 m/s 762 mmHg 63%
    18:00 +21°C° 0 mm 4 m/s 763 mmHg 64%
    19:00 +21°C° 0 mm 4 m/s 763 mmHg 65%
    20:00 +21°C° 0 mm 4 m/s 764 mmHg 66%
    21:00 +20°C° 0 mm 4 m/s 764 mmHg 65%
    22:00 +20°C° 0 mm 4 m/s 764 mmHg 64%
    23:00 +20°C° 0 mm 3 m/s 764 mmHg 62%

    27 Outubro, Sábado

    Tempo Temperatura Precipitação Vento Pressão Humidade
    00:00 +20°C° 0 mm 3 m/s 765 mmHg 62%
    01:00 +20°C° 0 mm 3 m/s 765 mmHg 63%
    02:00 +20°C° 0 mm 3 m/s 765 mmHg 63%
    03:00 +20°C° 0 mm 3 m/s 765 mmHg 63%
    04:00 +20°C° 0 mm 3 m/s 765 mmHg 63%
    05:00 +20°C° 0 mm 3 m/s 765 mmHg 63%
    06:00 +20°C° 0 mm 4 m/s 765 mmHg 57%
    07:00 +21°C° 0 mm 4 m/s 765 mmHg 52%
    08:00 +22°C° 0 mm 5 m/s 766 mmHg 46%
    09:00 +23°C° 0 mm 5 m/s 765 mmHg 40%
    10:00 +26°C° 0 mm 5 m/s 765 mmHg 33%
    11:00 +27°C° 0 mm 4 m/s 765 mmHg 27%
    12:00 +28°C° 0 mm 4 m/s 765 mmHg 27%
    13:00 +28°C° 0 mm 4 m/s 764 mmHg 26%
    14:00 +29°C° 0 mm 4 m/s 764 mmHg 26%
    15:00 +28°C° 0 mm 5 m/s 764 mmHg 30%
    16:00 +27°C° 0 mm 5 m/s 764 mmHg 33%
    17:00 +26°C° 0 mm 5 m/s 764 mmHg 37%
    18:00 +26°C° 0 mm 5 m/s 764 mmHg 36%
    19:00 +25°C° 0 mm 5 m/s 764 mmHg 36%
    20:00 +25°C° 0 mm 5 m/s 764 mmHg 35%
    21:00 +25°C° 0 mm 5 m/s 764 mmHg 35%
    22:00 +23°C° 0 mm 5 m/s 764 mmHg 34%
    23:00 +23°C° 0 mm 4 m/s 764 mmHg 33%
    Mostrar mais